Location: Newark
(11.0594°S, 77.5318°W)
Time: 02:49:09
(UTC+00:00)

N. Korean satellite - Visible Passes

Search period start: 18 July 2019 00:00
Search period end: 28 July 2019 00:00
Orbit: 456 x 508 km, 97.2° (Epoch: 17 July)

Date Brightness Start Highest point End Pass type
(mag) Time Alt. Az. Time Alt. Az. Time Alt. Az.
18 Jul 8.3 10:20:21 10° NE 10:23:46 35° ESE 10:27:11 10° S visible
18 Jul 9.4 23:36:27 10° SW 23:38:48 17° WSW 23:41:06 10° WNW visible
19 Jul 9.6 09:56:39 10° ENE 09:58:47 15° ESE 10:00:54 10° SE visible
20 Jul 7.1 11:03:20 10° N 11:06:50 40° W 11:10:21 10° SSW visible
21 Jul 6.9 10:38:05 10° NNE 10:41:47 73° E 10:45:29 10° S visible
22 Jul 8.7 10:13:34 10° NE 10:16:46 27° ESE 10:19:57 10° SSE visible
22 Jul 9.1 23:29:01 10° SSW 23:31:44 22° WSW 23:34:27 10° NW visible
23 Jul 9.8 09:50:30 10° E 09:51:47 11° ESE 09:53:03 10° SE visible
24 Jul 6.8 10:56:11 10° N 10:59:48 52° W 11:03:25 10° SSW visible
25 Jul 7.4 10:31:08 10° NNE 10:34:45 55° ESE 10:38:22 10° S visible
25 Jul 9.8 23:48:31 10° WSW 23:49:40 11° WSW 23:50:48 10° W visible
26 Jul 9.1 10:06:52 10° NE 10:09:44 21° ESE 10:12:36 10° SSE visible
